Flag Weather past 2 weeks in Leiria, Portugal

Now
59 °F

Partly cloudy.


Feels Like: 58 °F
Forecast: 48 / 61 °F
Wind: 6 mph from Northwest

Location: Monte Real Mil.

Current Time: Nov 25, 2014 at 2:06:59 AM

Latest Report: Nov 25, 2014 at 1:00 AM


Visibility: N/A

Pressure: 30.09 "Hg

Humidity: 94%

Dew point: 57 °F

Location of LeiriaLocation

Historic Weather in Leiria — Graph

°F

Leiria temperature yesterday

Maximum temperature yesterday: 66 °F (at 2:00 PM)
Minimum temperature yesterday: 54 °F (at 3:00 AM)
Average temperature yesterday: 58 °F

Past Weeks' High & Low Weather Summary

 TemperatureHumidityPressure
High68 °F (Nov 21, 1:00 PM)100% (Nov 10, 8:00 PM)30.09 "Hg (Nov 10, 8:00 PM)
Low46 °F (Nov 16, 6:00 AM)60% (Nov 21, 1:00 PM)29.56 "Hg (Nov 11, 4:00 AM)
Average58 °F86%29.85 "Hg
* Reported Midnight between Nov 9 and Nov 10 — Midnight between Nov 24 and Nov 25, Leiria, Weather by CustomWeather, © 2014

Note: Actual official high and low records may vary slightly from our data, if they occured in-between our weather recording intervals... More about our weather records

Advertising

Leiria weather history for previous 24 hours

 ConditionsComfort  
Time TempWeatherWind HumidityBarometerVisibility
12:00 AM
Nov 25
59 °FPassing clouds.3 mph94%30.09 "HgN/A
11:00 PM
Nov 24
57 °FPassing clouds.1 mph94%30.09 "HgN/A
10:00 PM57 °FPassing clouds.3 mph94%30.09 "HgN/A
9:00 PM57 °FPassing clouds.3 mph94%30.09 "HgN/A
8:00 PM59 °FPassing clouds.6 mph94%30.09 "HgN/A
7:00 PM61 °FPassing clouds.8 mph88%30.09 "HgN/A
6:00 PM61 °FPassing clouds.9 mph94%30.07 "HgN/A
5:00 PM63 °FScattered clouds.2 mph88%30.04 "HgN/A
4:00 PM63 °FPassing clouds.7 mph83%30.04 "HgN/A
3:00 PM66 °FPassing clouds.12 mph73%30.04 "HgN/A
2:00 PM66 °FPassing clouds.7 mph78%30.04 "HgN/A
1:00 PM64 °FPassing clouds.5 mph78%30.04 "HgN/A
12:00 PM64 °FPassing clouds.6 mph83%30.04 "HgN/A
10:00 AM57 °FScattered clouds.6 mph100%30.04 "Hg6 mi
9:00 AM55 °FScattered clouds.1 mph100%30.01 "Hg4 mi
8:00 AM55 °FSnow. Fog.5 mph94%30.01 "Hg3 mi
7:00 AM54 °FFog.1 mph100%29.98 "Hg2 mi
6:00 AM54 °FFog.6 mph100%29.98 "Hg2 mi
5:00 AM54 °FFog.1 mph100%29.95 "Hg1 mi
4:00 AM54 °FFog.3 mph100%29.95 "Hg1 mi
3:00 AM54 °FFog.1 mph100%29.95 "Hg1 mi
2:00 AM55 °FFog.2 mph94%29.95 "Hg1 mi
Weather by CustomWeather, © 2014

See weather overviewHow to use our weather pages